[[{"header":{"parameterUnit":"m.s-1","parameterCategory":1,"la1":30.2991,"la2":30.254,"lo1":-89.0895,"lo2":-89.0444,"dy":0.0017,"dx":0.0017,"nx":28,"ny":28,"refTime":"2024-04-26T09:00:00:Z","depth":0,"parameterNumber":2,"parameterNumberName":"U-component_of_WINDS"},"data":[0,0,0,0,0,0,0,0,0,0,0,0,0,0,0,0,0,0,0,0,0,0,0,0,0,0,0,0,0,0,0,0,0,0,0,0,0,0,0,0,0,0,0,0,0,0,0,0,0,0,0,0,0,0,0,0,0,0,-5.9057,-5.9057,0,-5.9121,-5.9122,-5.9123,-5.9083,-5.9082,-5.908,-5.9078,-5.9141,-5.9144,-5.9147,0,0,0,0,0,0,0,0,0,0,0,0,0,-5.8896,-5.8899,-5.9057,-5.9057,-5.9058,-5.9121,-5.9122,-5.9123,-5.9084,-5.9081,-5.9079,-5.9077,-5.914,-5.9144,-5.9148,0,0,0,0,0,0,0,0,0,0,0,0,0,-5.8964,-5.89,-5.9056,-5.9046,-5.9046,-5.9121,-5.9122,-5.9123,-5.9084,-5.9081,-5.9079,-5.9076,-5.9138,-5.9143,-5.9148,-5.9236,0,0,-5.9164,-5.9166,0,0,0,0,0,0,0,0,-5.896,-5.897,-5.9047,-5.9047,-5.9047,-5.9092,-5.9088,-5.9161,-5.9085,-5.907,-5.9078,-5.9075,-5.9126,-5.9132,-5.915,-5.9239,-5.9241,-5.9164,-5.9167,-5.917,-5.9171,0,0,0,0,0,0,0,-5.8955,-5.8967,-5.9082,-5.9048,-5.9048,-5.9038,-5.9044,-5.9102,-5.9113,-5.9071,-5.9068,-5.9076,-5.9126,-5.9146,-5.9152,-5.9242,-5.9164,-5.9169,-5.9172,-5.9174,-5.9404,-5.9407,0,0,0,0,0,0,-5.8952,-5.8963,-5.908,-5.9084,-5.8996,-5.9043,-5.905,-5.908,-5.9112,-5.9114,-5.9079,-5.9074,-5.9138,-5.9146,-5.9154,-5.9256,-5.917,-5.9174,-5.9177,-5.9401,-5.9404,-5.9408,0,0,0,0,0,0,-5.8948,-5.8963,-5.9077,-5.9023,-5.9037,-5.9048,-5.9082,-5.9083,-5.9102,-5.9118,-5.912,-5.9097,-5.9136,-5.9146,-5.9215,-5.9258,-5.9177,-5.9181,-5.9397,-5.9402,-5.9406,-5.9463,0,0,0,0,0,0,-5.8944,-5.8962,-5.8996,-5.9024,-5.904,-5.9139,-5.9085,-5.9086,-5.9112,-5.9107,-5.9136,-5.9138,-5.9135,-5.9208,-5.9221,-5.9263,-5.9185,-5.9393,-5.9399,-5.9405,-5.9457,-5.9469,-5.9479,0,0,0,0,0,-5.8938,-5.9009,-5.8997,-5.9012,-5.9083,-5.9142,-5.915,-5.9147,-5.9115,-5.9149,-5.9159,-5.9137,-5.9252,-5.9215,-5.9229,-5.9274,-5.9391,-5.9398,-5.9404,-5.9452,-5.9467,-5.9479,0,0,0,0,0,0,-5.8983,-5.9012,-5.9,-5.9082,-5.911,-5.9135,-5.9177,-5.9162,-5.9198,-5.9192,-5.9185,-5.9192,-5.9263,-5.9276,-5.9235,-5.936,-5.9316,-5.9326,-5.9348,-5.9362,-5.9372,-5.9366,-5.919,0,0,0,0,0,-5.9003,-5.905,-5.9072,-5.9142,-5.9157,-5.9165,-5.919,-5.9185,-5.9213,-5.9225,-5.924,-5.9267,-5.9309,-5.9337,-5.9377,-5.946,-5.9465,-5.9498,-5.9509,-5.9518,-5.9525,-5.9568,-5.9583,-5.943,-5.943,-5.943,0,0,-5.9044,-5.9065,-5.9095,-5.9152,-5.9172,-5.9219,-5.9175,-5.9227,-5.9261,-5.9232,-5.9297,-5.931,-5.934,-5.9416,-5.9451,-5.9429,-5.9569,-5.9526,-5.9533,-5.9536,-5.9577,-5.9591,-5.9604,-5.9435,-5.9434,-5.9433,0,0,-5.9141,-5.9163,-5.9223,-5.9245,-5.9278,-5.9283,-5.9298,-5.9326,-5.9333,-5.9399,-5.9378,-5.9419,-5.9492,-5.9514,-5.9534,-5.9641,-5.9621,-5.9655,-5.9709,-5.9752,-5.9764,-5.9774,-5.9809,-5.9823,-5.9663,-5.9663,-5.9663,0,-5.9186,-5.9257,-5.9255,-5.9308,-5.9333,-5.9311,-5.9371,-5.9392,-5.9436,-5.9453,-5.9429,-5.952,-5.9539,-5.9619,-5.9645,-5.9664,-5.9678,-5.9649,-5.9763,-5.9773,-5.9783,-5.9816,-5.983,-5.9667,-5.9666,-5.9666,-5.9666,0,-5.931,-5.936,-5.9404,-5.9448,-5.9478,-5.9535,-5.9539,-5.957,-5.9563,-5.9571,-5.9638,-5.966,-5.9703,-5.9723,-5.9716,-5.9802,-5.9787,-5.9764,-5.9719,-5.9801,-5.9832,-5.9845,-5.9672,-5.9671,-5.9669,-5.9669,0,0,-5.9434,-5.9478,-5.9493,-5.9512,-5.9548,-5.9586,-5.9641,-5.9684,-5.9709,-5.9742,-5.9786,-5.9849,-5.9827,-5.9851,-5.9847,-5.9885,-5.9965,-5.9856,-5.9856,-5.9872,-6.0057,-6.0072,-6.0087,-5.9953,-5.9956,-5.9958,-6.0054,0,-5.9531,-5.9628,-5.9628,-5.9717,-5.9761,-5.9742,-5.979,-5.9816,-5.9825,-5.9863,-5.9873,-5.9917,-5.9886,-5.99,-5.9937,-5.9947,-6.0001,-5.9941,-5.9992,-5.9994,-5.9981,-6.0104,-6.012,-6.0209,-6.0066,-6.0068,-6.007,0,-5.9656,-5.9693,-5.9786,-5.9814,-5.9833,-5.9876,-5.9915,-5.9953,-5.9983,-5.9986,-6.0014,-6.0004,-6.0058,-6.0016,-6.0089,-6.0048,-6.007,-6.0079,-6.0082,-6.0083,-6.0034,-6.0105,-6.0238,-6.025,-6.009,-6.0088,-6.0087,0,-5.9734,-5.9806,-5.9871,-5.9889,-5.9924,-5.9954,-5.997,-5.9997,-6.0023,-6.0058,-6.0074,-6.0115,-6.0136,-6.0167,-6.0168,-6.0137,-6.0242,-6.02,-6.0244,-6.0244,-6.0264,-6.0262,-6.0398,-6.0284,-6.0284,-6.0284,-6.0284,0,-5.9839,-5.9896,-5.9906,-5.9945,-6.0008,-6.0008,-6.007,-6.0084,-6.0108,-6.0148,-6.0136,-6.0174,-6.0175,-6.0213,-6.0215,-6.0274,-6.0285,-6.0288,-6.0287,-6.0287,-6.0286,-6.0298,-6.0291,-6.0287,-6.0287,-6.0286,-6.0285,0,-5.9935,-5.9944,-6.0013,-6.0042,-6.005,-6.0095,-6.0119,-6.0156,-6.0164,-6.0216,-6.0228,-6.0241,-6.0286,-6.0291,-6.0344,-6.0345,-6.0415,-6.041,-6.0405,-6.0403,-6.0446,-6.0441,-6.0592,-6.061,-6.0488,-6.0489,-6.049,0,-6.0,-6.0043,-6.0077,-6.0104,-6.0122,-6.0165,-6.0192,-6.0194,-6.0222,-6.0259,-6.0291,-6.0335,-6.037,-6.0443,-6.0456,-6.0496,-6.0488,-6.0539,-6.0494,-6.0492,-6.0485,-6.0481,-6.0484,-6.0546,-6.0547,-6.0549,-6.0549,0,-6.0114,-6.0116,-6.0155,-6.0197,-6.0229,-6.0261,-6.0292,-6.0314,-6.032,-6.0352,-6.0398,-6.0426,-6.048,-6.0523,-6.0562,-6.0577,-6.0564,-6.0564,-6.0576,-6.0574,-6.0569,-6.0569,-6.0425,-6.056,-6.0559,-6.0558,-6.0557,-6.0557,-6.0193,-6.023,-6.026,-6.0304,-6.0327,-6.0356,-6.0392,-6.0405,-6.0445,-6.0489,-6.0488,-6.0538,-6.0566,-6.0618,-6.0636,-6.0675,-6.0658,-6.0676,-6.068,-6.0683,-6.0686,-6.0566,-6.0683,-6.0682,-6.0682,-6.0682,-6.0682,0,-6.0303,-6.0322,-6.0363,-6.0406,-6.044,-6.0427,-6.046,-6.0489,-6.0534,-6.0562,-6.0597,-6.065,-6.0692,-6.0709,-6.075,-6.0777,-6.0772,-6.0787,-6.0783,-6.0787,-6.07,-6.0684,-6.0791,-6.0791,-6.0791,-6.0791,-6.0791,-6.0791,-6.0365,-6.0426,-6.0432,-6.0505,-6.0522,-6.0572,-6.0592,-6.0618,-6.064,-6.0699,-6.0735,-6.0746,-6.077,-6.0812,-6.0849,-6.0853,-6.0867,-6.0885,-6.0886,-6.0804,-6.0793,-6.0782,-6.0767,-6.0889,-6.0889,-6.0969,-6.0969,-6.097]},{"header":{"parameterUnit":"m.s-1","parameterCategory":1,"la1":30.2991,"la2":30.254,"lo1":-89.0895,"lo2":-89.0444,"dy":0.0017,"dx":0.0017,"nx":28,"ny":28,"refTime":"2024-04-26T09:00:00:Z","depth":0,"parameterNumber":3,"parameterNumberName":"V-component_of_WINDS"},"data":[0,0,0,0,0,0,0,0,0,0,0,0,0,0,0,0,0,0,0,0,0,0,0,0,0,0,0,0,0,0,0,0,0,0,0,0,0,0,0,0,0,0,0,0,0,0,0,0,0,0,0,0,0,0,0,0,0,0,5.1376,5.1376,0,5.14,5.14,5.1401,5.134,5.1338,5.1336,5.1334,5.1356,5.1358,5.1361,0,0,0,0,0,0,0,0,0,0,0,0,0,5.1276,5.1278,5.1376,5.1376,5.1377,5.14,5.14,5.1401,5.134,5.1338,5.1335,5.1333,5.1355,5.1358,5.1361,0,0,0,0,0,0,0,0,0,0,0,0,0,5.1312,5.1279,5.1376,5.1349,5.1347,5.14,5.14,5.1401,5.1341,5.1338,5.1335,5.1332,5.1354,5.1358,5.1361,5.144,0,0,5.1372,5.1374,0,0,0,0,0,0,0,0,5.131,5.1315,5.1353,5.1351,5.1349,5.1364,5.1373,5.1414,5.1341,5.1343,5.1334,5.1331,5.1361,5.1364,5.1374,5.1441,5.1442,5.1372,5.1375,5.1376,5.1377,0,0,0,0,0,0,0,5.1307,5.1314,5.1385,5.1354,5.1351,5.1336,5.1337,5.1381,5.1368,5.1343,5.1338,5.1342,5.1359,5.1371,5.1374,5.1443,5.1372,5.1376,5.1378,5.1379,5.1577,5.158,0,0,0,0,0,0,5.1308,5.1312,5.1385,5.1386,5.1322,5.134,5.1342,5.1362,5.1367,5.1365,5.1345,5.1339,5.1367,5.137,5.1375,5.1468,5.1376,5.1379,5.1381,5.1574,5.1577,5.1581,0,0,0,0,0,0,5.1307,5.1316,5.1384,5.1348,5.1356,5.1344,5.1368,5.1364,5.1376,5.1368,5.1366,5.1359,5.1364,5.137,5.1425,5.1468,5.1381,5.1384,5.157,5.1575,5.1579,5.1656,0,0,0,0,0,0,5.1304,5.1315,5.1345,5.1349,5.1358,5.1434,5.137,5.1367,5.1382,5.1376,5.1381,5.138,5.1363,5.142,5.1429,5.1472,5.1387,5.1566,5.1572,5.1578,5.1649,5.1662,5.1674,0,0,0,0,0,5.1301,5.1365,5.1347,5.1356,5.1395,5.1437,5.1441,5.1421,5.1386,5.1416,5.1412,5.1379,5.1462,5.1426,5.1435,5.148,5.1563,5.157,5.1577,5.1644,5.166,5.1673,0,0,0,0,0,0,5.1365,5.1365,5.1345,5.1413,5.1426,5.1426,5.1463,5.1439,5.146,5.1453,5.1426,5.1428,5.1488,5.1489,5.1449,5.1557,5.1507,5.1516,5.1554,5.1569,5.1581,5.158,5.139,0,0,0,0,0,5.1388,5.1422,5.142,5.148,5.1487,5.1475,5.1492,5.1475,5.1487,5.1491,5.1491,5.1502,5.1531,5.155,5.1576,5.1649,5.165,5.1685,5.1697,5.1707,5.1715,5.1755,5.177,5.1604,5.1604,5.1604,0,0,5.1434,5.1438,5.1461,5.1493,5.15,5.1536,5.1479,5.1519,5.1545,5.1497,5.1549,5.1549,5.1561,5.1625,5.1654,5.1628,5.1761,5.1716,5.1724,5.1727,5.1764,5.1779,5.1793,5.1609,5.1608,5.1607,0,0,5.1536,5.1543,5.1594,5.1603,5.1616,5.1608,5.162,5.1625,5.1624,5.1676,5.1641,5.1672,5.1722,5.1731,5.1743,5.1851,5.1822,5.186,5.1924,5.1963,5.1976,5.1987,5.2026,5.2041,5.1868,5.1869,5.1869,0,5.1591,5.1644,5.1623,5.1666,5.1681,5.1641,5.1693,5.1703,5.1723,5.1734,5.1706,5.1768,5.1773,5.184,5.1867,5.1877,5.189,5.1859,5.1976,5.1987,5.1998,5.2034,5.2049,5.1873,5.1873,5.1872,5.1872,0,5.1712,5.175,5.1789,5.1812,5.1832,5.1879,5.1864,5.1887,5.1869,5.1864,5.1918,5.1922,5.1949,5.1964,5.1946,5.2029,5.2012,5.1981,5.1929,5.2018,5.2053,5.2067,5.188,5.1878,5.1877,5.1876,0,0,5.1855,5.1866,5.1881,5.1891,5.1903,5.1932,5.1977,5.2004,5.2024,5.204,5.2078,5.2122,5.2093,5.2106,5.2089,5.2123,5.221,5.2087,5.2087,5.211,5.2301,5.2325,5.2342,5.2191,5.2194,5.2196,5.23,0,5.1956,5.2035,5.2018,5.2096,5.213,5.2093,5.2133,5.2145,5.2141,5.2169,5.2165,5.2197,5.2156,5.2164,5.2196,5.2192,5.2248,5.2185,5.2225,5.2227,5.2224,5.236,5.2385,5.2484,5.2314,5.2316,5.2317,0,5.2085,5.2107,5.2189,5.2197,5.221,5.2247,5.2271,5.2298,5.2311,5.2306,5.2322,5.2299,5.2344,5.2293,5.2354,5.2312,5.2328,5.2328,5.2332,5.2334,5.2277,5.2366,5.2514,5.2529,5.2338,5.2336,5.2335,0,5.2181,5.2232,5.2287,5.2297,5.2307,5.2334,5.2339,5.2349,5.2367,5.2388,5.2399,5.2425,5.2439,5.2459,5.2444,5.2408,5.2508,5.2455,5.2505,5.2506,5.2527,5.2526,5.268,5.2538,5.2538,5.2537,5.2537,0,5.2296,5.2348,5.2331,5.2365,5.2422,5.2402,5.2458,5.2459,5.2468,5.2502,5.2471,5.2503,5.2481,5.2511,5.2499,5.2552,5.2559,5.2556,5.2552,5.2559,5.2559,5.2568,5.2561,5.2541,5.254,5.254,5.2539,0,5.2413,5.2404,5.2462,5.2468,5.2471,5.2512,5.2517,5.2549,5.2543,5.2586,5.2595,5.2587,5.2621,5.2608,5.2643,5.2635,5.2703,5.269,5.27,5.2696,5.2747,5.2743,5.2912,5.2934,5.2777,5.2779,5.278,0,5.2487,5.2526,5.2537,5.2558,5.2566,5.26,5.2618,5.26,5.2621,5.2639,5.2669,5.27,5.2724,5.278,5.2777,5.2804,5.2792,5.285,5.2796,5.2801,5.2793,5.2791,5.2795,5.286,5.2862,5.2863,5.2865,0,5.262,5.2614,5.2643,5.2671,5.2694,5.2714,5.2732,5.2751,5.2734,5.2758,5.2793,5.2812,5.285,5.2881,5.2906,5.2911,5.2885,5.2882,5.2895,5.2902,5.2906,5.2905,5.2729,5.2878,5.2877,5.2876,5.2875,5.2874,5.2718,5.2751,5.2765,5.2798,5.281,5.2827,5.2858,5.2857,5.2886,5.2916,5.2903,5.2944,5.2956,5.2987,5.2996,5.3027,5.3004,5.3023,5.3028,5.3033,5.304,5.2901,5.3031,5.3031,5.303,5.303,5.303,0,5.285,5.2857,5.2887,5.2914,5.294,5.2915,5.2934,5.2957,5.2994,5.3008,5.3033,5.3074,5.3105,5.3104,5.3133,5.3158,5.3147,5.3166,5.3164,5.3166,5.3058,5.3044,5.3175,5.3175,5.3175,5.3175,5.3175,5.3175,5.2921,5.2977,5.2972,5.3033,5.304,5.308,5.3093,5.3109,5.3121,5.3168,5.3194,5.3194,5.3202,5.3232,5.3259,5.3258,5.327,5.3294,5.3289,5.3188,5.3173,5.316,5.3146,5.3297,5.3297,5.3394,5.3395,5.3396]}]]